Location: Fontevrault
(47.1823°N, 0.0493°E)
Time: 15:11:40
(UTC+00:00)

H-2A R/B - Pass Details

Date: 16 June 2021
Orbit: 574 x 597 km, 98.2° (Epoch: 30 July)

Event Time Altitude Azimuth Distance (km) Brightness Sun altitude
Rises 22:00:07 0° 14° (NNE) 2,799 7.7 -14.4°
Reaches altitude 10° 22:02:17 10° 16° (NNE) 1,894 6.7 -14.6°
Maximum altitude 22:06:23 78° 102° (ESE) 593 3.3 -14.9°
Enters shadow 22:09:02 21° 188° (S) 1,301 4.7 -15.1°
